カタログに戻る

STARLINK-2422

運用中通信VLEO
NORAD 47832·PAYLOAD·🇺🇸 United States

打ち上げ Mar 11, 2021 から Cape Canaveral Space Force Station

Loading…

次のパス (今後24時間)

TLE

最新Source: CelesTrak SupGP

元期: Sep 15, 2026, 01:05 UTC

1 47832C 21018AX  26258.04562500  .00021504  00000+0  69151-3 0  2585
2 47832  53.1576  84.4928 0001169  81.1919 101.0551 15.31691011    16

AllMySatでSTARLINK-2422をリアルタイム追跡

Download on the App Store